Regional Weather Roundup
Issued by NWS Goodland, KS

Home | Current Version | Previous Version | Text Only | Print | Product List | Glossary On
Versions: 1 2 3 4 5 6 7 8 9 10 11 12 13 14 15 16 17 18 19 20 21 22 23 24 25 26 27 28 29 30 31 32 33 34 35 36 37 38 39 40 41 42 43 44 45 46 47 48 49 50
000
ASUS43 KGLD 262308
RWRGLD

GOODLAND FORECAST AREA HOURLY WEATHER ROUNDUP
NATIONAL WEATHER SERVICE GOODLAND KS
400 PM MST WED NOV 26 2014

...OFFICIAL OBSERVATIONS...

CITY           SKY/WX    TMP DP  RH WIND       PRES   REMARKS
GOODLAND KS    CLOUDY    35  25  66 N5        30.30R
HILL CITY KS   CLOUDY    38  18  44 NW14      30.34R
IMPERIAL NEB   CLOUDY    31  27  85 W5        30.31R FOG
MCCOOK NEB     CLOUDY    36  19  50 NW9       30.31R
AKRON CO       CLEAR     29  23  78 SE7       30.24R
BURLINGTON CO  MOCLDY    34  23  64 E3        30.28R
LIMON CO       CLEAR     37  23  56 SE14      30.21R
$$

...UNOFFICIAL OBSERVATIONS...

CITY           SKY/WX    TMP DP  RH WIND       PRES   REMARKS
COLBY KS       CLOUDY    36  28  75 NW6       30.32R
GOVE KS          N/A     39  32  76 MISG        N/A
NORTON KS      CLOUDY    36  14  41 N7        30.32R
SHARON SPRINGS   N/A     36  24  63 CALM        N/A
TRIBUNE KS     CLEAR     39  28  65 N8        30.31R
TRENTON NEB      N/A     34  32  92 NW8         N/A
$$


USA.gov is the U.S. government's official web portal to all federal, state and local government web resources and services.